Jonesboro, AR

12:15 AM CDT on April 29, 2017 (GMT -0500)
Jonesboro Municipal

Weather History for KJBR - September, 2013

Change the Weather History Date:

Monday, September 23, 2013

  Actual Average Record
Temperature  
Mean Temperature 70 °F 69 °F  
Max Temperature 84 °F 81 °F 97 °F (1897)
Min Temperature 56 °F 57 °F 40 °F (1918)
Degree Days  
Heating Degree Days 0 1  
Month to date heating degree days 0 6  
Since 1 July heating degree days 0 6  
Cooling Degree Days 5 5  
Month to date cooling degree days 297 195  
Year to date cooling degree days 1897 1741  
Growing Degree Days 18 (Base 50)    
Moisture  
Dew Point 56 °F    
Average Humidity 65    
Maximum Humidity 90    
Minimum Humidity 39    
Precipitation  
Precipitation 0.00 in 0.10 in 3.04 in (1909)
Month to date precipitation 1.19 2.24  
Year to date precipitation 38.64 33.35  
Snow  
Snow 0.00 in 0.00 in 0.00 in (2002)
Month to date snowfall 0.0 0.0  
Since 1 July snowfall 0.0 0.0  
Since 1 September snowfall 0.0 0.0  
Snow Depth 0.00 in    
Sea Level Pressure  
Sea Level Pressure 29.92 in    
Wind  
Wind Speed 6 mph (ENE)    
Max Wind Speed 13 mph    
Max Gust Speed 20 mph    
Visibility 10 miles    
Events      
T = Trace of Precipitation, MM = Missing Value Source: NWS Daily Summary

Daily Weather History Graph

Daily Weather History Graph

Search for Another Location

Airport or City:

Trip Planner

Search our weather history database for the weather conditions in past years. The results will help you decide how hot, cold, wet, or windy it might be!

Date:

Astronomy

Sep. 23, 2013 Rise Set
Actual Time 6:51 AM CDT 6:57 PM CDT
Civil Twilight 6:26 AM CDT 7:23 PM CDT
Nautical Twilight 5:56 AM CDT 7:52 PM CDT
Astronomical Twilight 5:26 AM CDT 8:22 PM CDT
Moon 9:39 PM CDT (9/23) 11:01 AM CDT (9/23)
Length of Visible Light 12h 57m
Length of Day
12h 06m
Waning Gibbous, 81% of the Moon is Illuminated
Sep 23
Waning Gibbous
Sep 26
Last Quarter
Oct 4
New
Oct 11
First Quarter
Oct 18
Full

Hourly Weather History & Observations

Time (CDT) Temp. Heat Index Dew Point Humidity Pressure Visibility Wind Dir Wind Speed Gust Speed Precip Events Conditions
12:53 AM 59.0 °F - 53.1 °F 81% 29.92 in 10.0 mi NE 5.8 mph - N/A   Clear
1:53 AM 57.9 °F - 52.0 °F 81% 29.92 in 10.0 mi NE 4.6 mph - N/A   Clear
2:53 AM 57.9 °F - 53.1 °F 84% 29.92 in 10.0 mi NE 5.8 mph - N/A   Clear
3:53 AM 57.9 °F - 53.1 °F 84% 29.92 in 10.0 mi NE 5.8 mph - N/A   Clear
4:53 AM 57.0 °F - 52.0 °F 83% 29.93 in 10.0 mi NE 5.8 mph - N/A   Clear
5:53 AM 57.0 °F - 52.0 °F 83% 29.94 in 10.0 mi NE 5.8 mph - N/A   Clear
6:53 AM 55.9 °F - 52.0 °F 87% 29.96 in 10.0 mi NE 4.6 mph - N/A   Clear
7:53 AM 61.0 °F - 54.0 °F 78% 29.97 in 10.0 mi NE 3.5 mph - N/A   Clear
8:53 AM 64.9 °F - 55.9 °F 73% 29.97 in 10.0 mi East 6.9 mph - N/A   Clear
9:53 AM 69.1 °F - 57.0 °F 65% 29.97 in 10.0 mi East 6.9 mph - 0.46 in   Clear
10:53 AM 73.0 °F - 55.9 °F 55% 29.97 in 10.0 mi East 8.1 mph - N/A   Clear
11:53 AM 78.1 °F - 55.0 °F 45% 29.95 in 10.0 mi East 6.9 mph - N/A   Clear
12:53 PM 81.0 °F 80.8 °F 55.9 °F 42% 29.94 in 10.0 mi Calm Calm - N/A   Clear
1:53 PM 81.0 °F 80.5 °F 54.0 °F 39% 29.90 in 10.0 mi East 3.5 mph - N/A   Clear
2:53 PM 82.9 °F 82.0 °F 55.0 °F 38% 29.89 in 10.0 mi ESE 10.4 mph - N/A   Clear
3:53 PM 82.9 °F 82.1 °F 55.9 °F 39% 29.88 in 10.0 mi SSE 10.4 mph - N/A   Clear
4:53 PM 82.9 °F 82.4 °F 57.0 °F 41% 29.88 in 10.0 mi ESE 8.1 mph - N/A   Clear
5:53 PM 81.0 °F 81.1 °F 57.9 °F 45% 29.87 in 10.0 mi ESE 6.9 mph - N/A   Clear
6:53 PM 75.0 °F - 59.0 °F 57% 29.88 in 10.0 mi ENE 4.6 mph - N/A   Clear
7:53 PM 69.1 °F - 60.1 °F 73% 29.88 in 10.0 mi ENE 6.9 mph - N/A   Clear
8:53 PM 66.9 °F - 60.1 °F 79% 29.90 in 10.0 mi NE 6.9 mph - N/A   Clear
9:46 PM 66.2 °F - 60.8 °F 83% 29.90 in 10.0 mi ENE 6.9 mph - N/A   Scattered Clouds
9:53 PM 66.0 °F - 60.1 °F 81% 29.90 in 10.0 mi ENE 5.8 mph - N/A   Partly Cloudy
10:53 PM 64.9 °F - 59.0 °F 81% 29.90 in 10.0 mi ENE 4.6 mph - N/A   Clear
11:53 PM 63.0 °F - 59.0 °F 87% 29.90 in 10.0 mi NNE 3.5 mph - N/A   Clear